Theta_e
292 292 292 293 293 294 293 293 294 294 295 295 296 295 295 295 295 294 293 292 291 290 289 288 287 287 285 286 289 291 291 293 287 282 283 281 279 278 278 279 279 278 277
291 291 291 291 291 290 290 291 292 291 292 292 293 292 292 292 292 291 290 289 288 287 286 285 284 284 282 283 285 284 285 285 283 279 277 277 276 277 277 277 278 279 277
290 290 290 289 289 289 289 290 289 289 290 290 290 289 289 289 288 287 286 285 284 284 283 283 282 282 280 281 280 280 279 281 281 280 276 276 276 276 276 276 276 276 277
288 287 287 287 287 287 288 288 288 288 288 288 288 287 287 287 286 285 285 284 283 283 283 282 281 280 279 278 278 278 278 278 278 277 276 275 275 276 274 273 273 274 274
286 285 285 285 286 286 286 286 286 286 286 286 286 286 286 285 284 283 283 283 282 281 282 282 282 283 285 282 278 277 277 277 277 276 274 274 273 273 273 273 272 272 273
283 283 284 284 284 284 284 284 284 284 285 285 285 285 284 285 286 285 283 281 281 280 279 279 279 279 283 284 285 285 281 277 276 276 274 273 273 273 273 272 271 270 268
282 282 282 282 282 282 282 282 282 282 283 283 283 283 283 283 285 284 282 280 279 278 278 278 278 278 277 278 280 280 280 282 280 276 274 273 273 273 272 271 271 270 270
281 281 281 281 281 281 281 280 280 281 280 281 281 281 281 282 284 283 281 279 278 278 278 278 277 277 278 277 276 276 276 276 275 275 274 273 273 274 273 272 271 269 268
280 280 280 281 280 280 280 279 279 279 279 280 280 280 280 281 284 283 281 279 278 277 278 278 278 278 281 280 277 275 275 275 278 279 278 278 278 277 276 271 263 263 262
279 279 280 280 279 279 279 279 279 279 279 279 279 279 279 280 284 283 281 279 277 277 278 278 280 278 281 279 276 275 273 273 273 272 272 273 274 273 277 272 269 262 261
278 279 279 279 279 278 278 278 278 277 277 276 277 277 277 278 280 283 282 279 278 277 277 277 278 281 280 280 278 276 275 274 271 268 268 268 269 270 270 271 271 268 261
276 276 275 276 278 278 276 275 276 275 274 274 273 274 275 277 281 282 282 281 281 278 277 276 276 280 280 280 277 279 279 273 264 264 264 265 267 267 268 266 266 266 268
273 271 271 273 276 276 274 274 273 273 272 272 273 271 272 274 275 281 282 282 281 277 277 278 280 280 280 277 279 279 271 266 265 263 264 266 267 266 264 261 261 258 260
269 269 269 271 271 271 274 274 272 271 270 272 272 271 270 271 272 273 276 274 277 277 277 272 276 277 278 276 271 272 270 268 267 266 265 264 262 259 259 260 259 259 257
269 268 269 270 269 270 271 271 272 272 273 269 269 270 268 269 273 277 276 274 273 274 266 267 268 268 267 267 267 266 266 265 264 263 262 262 262 261 261 259 258 255 257
269 268 269 269 268 269 270 270 278 280 281 281 282 278 276 278 281 282 282 282 282 282 269 268 268 267 267 266 266 267 264 265 266 264 262 261 263 263 263 260 259 256 257
269 269 268 269 268 268 268 269 268 274 281 283 284 283 284 284 284 283 283 283 283 281 276 270 269 270 268 267 267 265 263 265 263 261 262 263 264 265 262 259 259 259 258
263 266 266 267 266 266 267 268 267 267 267 269 276 278 280 282 283 283 283 283 273 271 263 264 265 266 265 266 265 263 263 262 261 263 262 262 264 262 260 260 260 258 257
263 264 264 264 264 265 265 265 266 266 266 268 273 276 272 276 277 279 281 269 267 268 267 269 270 270 267 264 264 261 262 262 263 260 258 260 261 259 260 260 260 258 255
259 262 263 262 262 262 263 263 264 265 271 274 273 272 268 269 262 260 259 258 258 259 259 259 261 259 260 259 259 259 258 258 259 257 258 259 260 260 260 258 255 255 253
257 258 261 260 261 261 262 262 262 262 267 269 269 268 274 269 263 259 258 258 257 257 259 257 258 257 257 255 254 254 254 258 258 257 258 257 255 254 256 256 255 254 254
256 256 257 258 260 262 262 263 263 265 264 263 267 266 271 260 258 256 256 256 256 255 255 254 256 255 255 255 254 253 254 256 257 256 256 255 254 253 251 251 252 251 249
256 256 256 257 258 260 259 259 261 265 265 262 258 257 256 256 255 255 255 256 254 254 253 251 251 254 253 252 251 254 255 257 258 255 256 255 254 253 250 251 252 249 250
255 255 256 255 256 258 259 259 259 260 258 258 257 257 258 256 256 256 255 254 252 252 250 249 249 251 253 254 252 251 252 255 254 255 255 255 256 253 252 252 254 255 256
253 255 256 256 256 257 259 259 259 258 257 258 257 256 255 254 252 251 251 250 250 251 253 253 251 252 254 255 256 256 256 259 259 257 255 254 256 256 257 258 259 258 257
255 256 256 256 257 255 255 256 255 255 254 254 253 251 251 251 252 251 252 252 253 254 254 254 254 256 256 257 257 260 261 264 263 261 259 258 258 259 260 260 260 259 259
Wind_Speed
9 10 9 10 12 9 10 6 8 9 7 9 8 5 10 9 7 8 9 9 10 9 6 6 7 6 4 3 3 3 3 3 4 2 1 2 2 1 2 2 2 2 3
9 9 11 9 7 9 8 10 8 10 9 8 6 9 10 9 8 10 9 8 8 8 7 6 6 5 5 5 4 5 4 3 4 4 1 2 2 1 2 2 2 2 3
9 9 10 9 8 9 6 9 10 10 8 12 9 9 8 9 7 10 10 9 10 8 7 6 5 6 7 4 5 5 4 4 4 4 3 1 0 2 2 2 2 2 3
9 9 9 9 8 8 7 7 10 9 10 9 8 7 8 9 9 8 9 10 10 8 9 8 6 7 6 6 5 5 5 5 5 4 3 2 1 2 2 2 3 2 3
8 9 8 7 8 8 10 10 10 10 9 7 7 7 7 8 6 8 9 9 10 10 9 8 8 8 14 10 4 4 5 4 3 4 3 2 2 2 1 1 2 3 2
7 8 6 7 8 8 7 8 9 8 8 8 7 7 9 7 14 15 11 9 8 9 8 6 6 6 12 16 17 17 9 3 3 2 2 1 1 1 0 1 1 3 4
6 7 7 7 7 6 6 8 7 6 6 7 7 8 9 9 15 15 14 7 7 6 5 5 5 5 6 6 12 14 13 13 10 2 3 1 0 1 1 1 1 0 3
5 7 6 5 6 6 7 8 7 5 4 5 6 7 8 8 14 14 13 7 6 5 5 5 5 5 5 5 5 5 5 5 5 4 5 2 1 1 1 0 0 3 4
6 5 5 5 6 6 7 6 4 3 5 5 5 7 8 7 11 10 9 6 6 5 5 5 5 5 7 6 4 4 4 4 5 7 5 3 2 2 1 2 2 3 3
5 4 4 5 6 5 5 4 3 4 5 4 6 6 6 5 9 9 7 3 4 2 3 4 6 5 7 7 4 3 3 1 3 4 4 4 5 5 6 2 2 2 1
4 5 6 6 5 4 3 2 3 4 4 5 5 5 5 5 4 6 5 2 2 2 2 1 1 4 4 5 5 3 2 2 3 2 2 2 2 3 2 1 3 3 3
5 5 5 4 3 3 4 3 4 4 4 4 3 2 3 4 5 4 3 3 3 2 1 1 1 2 2 1 2 2 3 5 1 1 2 2 2 2 2 2 2 3 4
4 4 3 4 4 4 3 3 2 2 2 2 1 1 2 2 2 4 3 2 2 2 1 3 4 4 3 2 2 5 4 2 1 2 2 2 2 2 3 3 3 2 5
4 2 2 3 3 3 3 1 2 1 1 1 0 1 2 2 2 1 1 1 1 1 1 2 2 1 1 1 2 2 1 1 1 2 2 2 2 1 2 1 1 1 1
1 0 0 1 0 0 0 2 2 3 3 3 3 3 1 3 3 4 4 2 3 4 3 1 1 1 1 2 2 2 2 1 1 2 3 3 2 1 2 1 1 0 2
2 2 2 2 1 1 1 3 5 8 6 7 8 5 2 7 9 9 9 8 8 7 2 1 1 1 2 2 3 3 2 3 3 3 3 3 3 2 2 2 2 2 2
4 3 3 2 2 2 2 3 3 3 7 10 10 10 11 11 11 10 9 9 9 7 3 3 3 3 4 4 4 4 3 3 2 2 2 4 3 4 2 2 2 2 3
3 5 3 3 3 2 3 3 2 2 3 3 2 3 7 11 12 12 12 10 2 2 1 2 3 3 3 4 4 3 3 3 3 3 3 3 4 3 3 4 3 4 3
3 3 2 2 2 3 2 3 3 3 3 3 2 3 6 9 10 10 10 1 1 2 2 3 4 4 4 3 4 3 4 3 4 2 3 4 4 3 4 4 4 5 3
3 5 4 2 2 2 2 2 2 2 2 3 3 3 4 3 3 3 2 1 1 3 3 3 4 3 4 4 3 3 3 3 4 3 4 4 3 3 5 4 3 4 4
2 3 3 1 2 2 2 2 2 1 2 2 3 2 7 3 3 3 3 3 3 3 4 3 3 3 3 3 2 3 3 5 3 3 3 3 2 3 4 4 4 4 4
2 2 2 2 2 1 2 1 2 2 1 2 2 3 9 2 2 2 3 3 3 3 2 2 3 3 3 3 3 3 3 5 4 4 4 4 4 4 3 3 3 3 3
2 2 2 2 2 2 2 2 1 1 2 3 3 3 3 2 2 2 3 3 3 3 2 2 2 4 3 3 3 4 5 6 5 3 4 4 4 4 3 3 3 3 3
3 3 3 3 3 3 3 3 3 4 3 3 3 3 3 2 2 3 3 3 3 4 3 3 3 4 5 5 3 3 4 5 4 5 6 4 4 3 3 3 4 6 5
3 4 4 3 3 3 3 3 3 2 2 2 2 2 2 3 3 3 3 3 4 4 5 4 3 5 6 8 7 8 7 9 7 6 4 5 6 6 6 5 6 4 5
4 4 4 3 4 4 4 4 3 3 3 3 2 3 2 3 3 3 3 4 4 4 6 4 5 7 8 6 8 9 9 9 8 10 6 5 5 5 5 6 7 5 6
Wind_Direction
43 57 48 62 40 37 57 68 71 54 38 62 59 65 80 63 59 78 83 76 85 78 64 71 71 66 52 40 23 47 55 61 110 103 74 43 73 13 348 357 18 357 343
45 56 60 59 72 70 43 65 67 70 55 67 76 68 66 86 67 82 75 70 78 79 74 70 67 75 56 41 39 51 55 35 114 117 107 59 62 293 292 310 320 347 337
39 48 55 48 44 62 42 62 61 55 51 55 50 63 75 71 86 79 85 88 74 66 65 66 55 70 61 46 53 60 50 52 63 111 125 79 110 9 342 331 320 309 316
48 46 50 49 49 49 52 64 66 71 64 61 62 71 70 82 80 84 89 87 84 75 64 64 58 65 76 69 61 58 61 71 72 88 82 116 76 38 53 1 332 345 325
52 55 50 51 54 55 42 45 50 51 63 68 70 65 73 78 80 93 93 89 92 86 74 69 63 68 77 77 81 56 70 74 79 74 81 68 38 28 44 315 290 297 285
50 55 39 50 55 58 60 58 64 53 50 58 67 78 75 79 97 100 100 102 100 101 103 88 74 57 75 77 73 69 67 79 85 110 122 143 182 188 126 341 293 8 331
45 53 45 42 51 51 62 69 59 64 78 76 71 74 80 83 92 95 92 90 92 88 96 95 85 70 67 71 71 68 57 61 62 95 117 96 87 76 1 344 42 211 256
47 62 54 54 59 51 59 61 57 51 56 76 80 76 81 84 95 97 92 84 82 79 83 90 96 86 74 74 80 72 58 52 54 55 67 103 101 125 114 109 344 288 289
59 57 61 59 62 50 55 62 59 67 65 55 59 68 74 70 91 96 87 78 84 71 66 69 78 84 90 91 91 88 78 43 33 42 53 37 11 333 176 87 1 45 325
53 56 66 74 76 78 74 50 37 52 59 52 66 57 68 80 90 92 91 88 101 95 80 95 96 95 84 69 77 84 93 59 23 9 10 356 341 312 305 176 153 142 199
56 47 44 59 72 88 80 59 83 77 67 62 65 47 55 52 62 87 96 88 123 129 97 105 18 107 93 81 82 91 92 121 32 29 341 322 317 320 299 286 188 161 167
53 55 44 32 40 55 76 53 50 74 89 64 69 40 26 31 29 28 53 86 143 138 173 196 214 225 183 169 123 345 350 113 110 14 10 348 332 313 304 322 273 245 236
80 76 55 38 37 33 71 81 68 70 81 71 91 49 315 352 355 359 359 53 65 103 181 223 221 242 270 38 321 312 91 130 120 17 327 264 234 249 287 309 302 276 262
108 90 56 77 57 34 30 52 78 128 110 125 242 262 278 306 308 282 259 23 345 102 26 13 315 324 293 248 20 347 290 196 180 225 247 243 281 324 315 228 259 320 329
91 63 33 94 108 344 219 194 208 234 180 194 226 207 213 296 265 250 232 223 219 219 122 54 28 12 321 322 308 281 281 290 239 221 227 248 254 233 263 197 220 8 208
198 203 214 206 232 255 296 316 266 243 250 255 256 219 215 244 278 283 279 277 261 243 87 187 239 241 251 247 261 281 263 251 244 225 242 231 252 245 252 271 226 204 243
229 220 211 207 209 209 210 204 237 273 250 249 257 262 265 266 266 270 278 277 273 275 241 210 239 235 250 245 243 223 243 247 225 242 239 256 254 255 217 246 244 236 267
249 250 230 227 216 220 224 235 217 219 259 287 323 294 293 291 290 287 285 282 294 334 146 227 249 245 242 246 246 239 254 258 247 250 246 246 252 225 237 243 231 239 254
279 266 240 243 233 231 224 231 224 224 238 261 306 301 11 337 321 307 312 24 251 270 272 269 253 263 261 252 256 246 247 254 256 243 250 236 247 209 252 247 251 236 236
286 270 251 234 246 247 245 245 276 276 309 309 324 331 343 351 4 325 328 327 277 255 256 255 266 257 260 257 265 263 271 276 268 241 249 248 250 228 255 252 234 250 236
295 304 281 262 235 225 228 233 247 256 262 276 272 262 286 230 255 254 283 285 270 277 279 264 274 270 265 267 271 274 260 272 267 258 260 258 245 258 240 244 254 244 251
325 319 343 303 313 296 259 230 215 236 243 251 283 330 342 18 331 300 301 296 291 270 270 268 283 263 258 256 253 252 256 267 265 256 256 248 243 244 236 235 251 243 238
2 11 13 358 354 344 359 353 331 310 330 351 348 337 358 342 330 320 312 304 299 301 295 286 268 286 263 251 225 222 234 250 247 224 252 249 245 243 218 243 246 259 235
36 39 40 33 30 33 32 24 21 30 26 19 13 4 8 350 337 318 301 298 302 299 288 284 257 259 284 283 268 253 248 258 251 253 241 250 261 230 232 237 240 245 252
36 44 48 45 51 48 53 51 60 59 59 46 33 18 332 336 336 326 319 321 314 317 312 308 291 286 289 295 291 284 261 269 259 242 224 222 248 242 242 236 244 235 235
50 53 48 41 44 39 44 46 40 36 34 18 10 1 339 330 317 313 318 321 318 311 312 299 297 301 299 289 284 282 277 277 264 238 218 213 233 243 239 242 245 241 247